P/2020 V3 ( PanSTARRS )

Japanese version
Home page
Updated on February 20, 2021

---------------------------------------------------------------------

* Profile

Discovery Date November 10, 2020
Magnitude 20.6 mag
Discoverer Pan-STARRS 1 telescope (Haleakala)

* Pictures

* Orbital Elements

Epoch 2021 Jan. 26.0 TT = JDT 2459240.5
T 2021 Feb. 7.77289 TT                                  Rudenko
q   6.2306605            (2000.0)            P               Q
n   0.04076718     Peri.  249.24758     +0.06633755     -0.99021144
a   8.3610773      Node   198.29147     +0.99723294     +0.06993458
e   0.2548017      Incl.   23.03407     +0.03355275     -0.12079096
P  24.2
From 99 observations 2020 Oct. 17-2021 Jan. 13, mean residual 0".4.

* Magnitudes Graph

        m1 = 8.5 + 5 log d + 10.0 log r

---------------------------------------------------------------------

The orbital elements are published on M.P.E.C. 2021-B143.
The magnitudes graphs are made with Comet for Windows.

---------------------------------------------------------------------

Copyright(C) Seiichi Yoshida (comet@aerith.net). All rights reserved.